{"data":{"norad_id":47302,"intl_designator":"2020-103A","name":"YAOGAN-33 01","alt_names":[],"object_type":"PAYLOAD","status":"ACTIVE","operator":null,"country":"PRC","launch_date":"2020-12-27","launch_site_code":"JSC","launch_vehicle":null,"mission":null,"orbit_class":"UNKNOWN","rcs_meters":null,"size_class":null,"mass_kg":null,"dimensions":null,"purposes":[],"wikipedia_slug":null,"has_3d_model":false,"image_url":null,"decayed_at":null,"tle_current":{"epoch":"2026-09-20T21:59:56.020704Z","epoch_age_seconds":40580,"freshness":"FRESH","line1":"1 47302U 20103A   26263.91662061  .00000191  00000+0  50507-4 0  9993","line2":"2 47302  98.0253 142.3613 0003185 164.8071 195.3225 14.58624379305261","mean_motion":14.58624379,"eccentricity":0.0003185,"inclination_deg":98.0253,"raan_deg":142.3613,"arg_perigee_deg":164.8071,"mean_anomaly_deg":195.3225,"bstar":5.0507e-5,"rev_number":30526,"period_min":98.723154551087,"perigee_km":695.36560593247,"apogee_km":699.87286265372,"semimajor_km":7075.7562342931,"source":"CELESTRAK","updated_at":"2026-09-21T09:00:07.513181Z"}}}